Skip Page Navigation
NASA JPL Caltech
NASA Logo - Jet Propulsion Laboratory + View the NASA Portal
+ Center for Near-Earth Object Studies
JPL Home Earth Solar System Stars & Galaxies Technology
JPL Solar System Dynamics
BODIES ORBITS EPHEMERIDES TOOLS PHYSICAL DATA DISCOVERY FAQ SITE MAP
IMPORTANT: The SSD Announcement email list is now available. Major changes are coming in the near future, including possible hostname and/or URL changes. To be notified of such changes, subscribe to this email list.

Please visit this page for more details.


JPL Small-Body Database Browser
Search: [ help ]  
2206 Gabrova (1976 GR3)
Classification: Main-belt Asteroid          SPK-ID: 2002206
Ephemeris | Orbit Diagram | Orbital Elements | Mission Design | Physical Parameters | Discovery Circumstances | Close-Approach Data ]

[ hide orbit diagram ]

For accurate long-term ephemerides, please instead use our Horizons system.This orbit viewer was implemented using two-body methods, and hence should not be used for determining accurate long-term trajectories (over several years or decades) or planetary encounter circumstances.


[ revert to old Java-based viewer ]

Orbital Elements at Epoch 2458600.5 (2019-Apr-27.0) TDB
Reference: JPL 32 (heliocentric ecliptic J2000)
 Element Value Uncertainty (1-sigma)   Units 
e .05258022870187017 3.5584e-08  
a 3.014391373306872 1.8555e-08 au
q 2.855893985501452 1.0703e-07 au
i 10.93166393678263 3.9591e-06 deg
node 63.53413188698391 2.1412e-05 deg
peri 162.1726920528802 4.4871e-05 deg
M 59.03676296971102 3.9397e-05 deg
tp 2458287.014166146101
(2018-Jun-17.51416615)
0.00020934 TDB
period 1911.603795846739
5.23
1.765e-05
4.832e-08
d
yr
n .1883235431851291 1.7388e-09 deg/d
Q 3.172888761112292 1.953e-08 au
  Orbit Determination Parameters
   # obs. used (total)      2492  
   data-arc span      18635 days (51.02 yr)  
   first obs. used      1968-10-23  
   last obs. used      2019-10-31  
   planetary ephem.      DE431  
   SB-pert. ephem.      SB431-N16  
   condition code      0  
   norm. resid. RMS      .42477  
   source      ORB  
   producer      Otto Matic  
   solution date      2019-Nov-07 02:13:35  

Additional Information
 Earth MOID = 1.84714 au 
 Jupiter MOID = 1.82244 au 
 T_jup = 3.219 
[ show covariance matrix ]

Ephemeris | Orbit Diagram | Orbital Elements | Mission Design | Physical Parameters | Discovery Circumstances | Close-Approach Data ]

Physical Parameter Table
Parameter Symbol Value Units Sigma Reference Notes
absolute magnitude H 11.4   n/a MPO350817  
diameter diameter 20.479 km 3.181 urn:nasa:pds:neowise_diameters_albedos::2.0[mainbelt] (http://adsabs.harvard.edu/abs/2012ApJ...759L...8M)  
geometric albedo albedo 0.139   0.066 urn:nasa:pds:neowise_diameters_albedos::2.0[mainbelt] (http://adsabs.harvard.edu/abs/2012ApJ...759L...8M)  

2206 Gabrova           Discovered 1976 Apr. 1 by N. S. Chernykh at the Crimean Astrophysical Observatory.
Discovered on All Fools' Day, this minor planet is named for the Bulgarian town known for its humor and high-spirited merriment.
NOTE: some special characters may not display properly (any characters within {} are an attempt to place the proper accent above a character)
Reference: MPC 5849Last Updated: 2006-03-21

[ show close-approach data ]
Alternate Designations
 1976 GR3 = 1968 UV1 = 1970 EL = 1971 HJ = 1973 UX1 
Ephemeris | Orbit Diagram | Orbital Elements | Mission Design | Physical Parameters | Discovery Circumstances | Close-Approach Data ]
ABOUT SSD CREDITS/AWARDS PRIVACY/COPYRIGHT GLOSSARY LINKS
FirstGov 2019-Dec-08 19:29 UT
(server date/time)  
NASA Home Page
Site Manager:   Ryan S. Park
Webmaster  Alan B. Chamberlin